Home   Weather   Preston   Past weeks

Flag for United Kingdom Past Weather in Preston, England, United Kingdom — Yesterday and Last 2 Weeks

Now
37 °F

Clear.


Feels Like: 33 °F
Forecast: 32 / 39 °F
Wind: 6 mph from South

Location: Liverpool Airport

Current Time: Jan 20, 2018 at 5:45:43 am

Latest Report: Jan 20, 2018 at 4:50 am


Visibility: 10 mi

Pressure: 29.53 "Hg

Humidity: 93%

Dew Point: 36 °F

Location of PrestonLocation

Past Weather in Preston — Graph

°F

Preston Temperature Yesterday

Maximum temperature yesterday: 43 °F (at 11:50 am)
Minimum temperature yesterday: 37 °F (at 3:20 am)
Average temperature yesterday: 39 °F

High & Low Weather Summary for the Past Weeks

 TemperatureHumidityPressure
High50 °F (Jan 10, 2:20 pm)100% (Jan 5, 4:50 am)30.48 "Hg (Jan 5, 4:50 am)
Low28 °F (Jan 7, 11:20 pm)65% (Jan 8, 11:50 am)29.03 "Hg (Jan 18, 2:20 am)
Average40 °F89%29.78 "Hg
* Reported Jan 5 4:20 am — Jan 20 4:20 am, Preston. Weather by CustomWeather, © 2018

Note: Actual official high and low records may vary slightly from our data, if they occured in-between our weather recording intervals... More about our weather records

Advertising

Preston Weather History for the Previous 24 Hours

Scroll right to see more
 ConditionsComfort  
Time TempWeatherWind HumidityBarometerVisibility
4:20 am
Sat, Jan 20
37 °FClear.7 mph93%29.56 "Hg10 mi
3:50 am37 °FChilly.6 mph93%29.56 "HgN/A
3:20 am39 °FChilly.7 mph87%29.59 "HgN/A
2:50 am37 °FChilly.7 mph93%29.59 "HgN/A
2:20 am39 °FClear.10 mph87%29.62 "Hg10 mi
1:50 am39 °FClear.8 mph87%29.62 "Hg10 mi
1:20 am39 °FClear.9 mph81%29.65 "Hg10 mi
12:50 am39 °FClear.12 mph87%29.65 "Hg10 mi
12:20 am39 °FClear.12 mph87%29.65 "Hg10 mi
11:50 pm
Fri, Jan 19
39 °FPassing clouds.14 mph81%29.68 "HgN/A
11:20 pm39 °FPassing clouds.10 mph87%29.68 "HgN/A
10:50 pm39 °FPassing clouds.13 mph87%29.68 "HgN/A
10:20 pm39 °FPassing clouds.12 mph87%29.68 "HgN/A
9:50 pm39 °FPassing clouds.9 mph81%29.68 "HgN/A
9:20 pm39 °FPartly cloudy.10 mph81%29.68 "HgN/A
8:50 pm39 °FPassing clouds.15 mph81%29.68 "HgN/A
8:20 pm39 °FPassing clouds.13 mph81%29.68 "HgN/A
7:50 pm39 °FPassing clouds.16 mph81%29.68 "HgN/A
7:20 pm39 °FPassing clouds.15 mph81%29.68 "HgN/A
6:50 pm39 °FPassing clouds.15 mph81%29.68 "HgN/A
6:20 pm39 °FPassing clouds.9 mph81%29.68 "HgN/A
5:50 pm39 °FPassing clouds.9 mph75%29.68 "HgN/A
5:20 pm37 °FPassing clouds.12 mph81%29.71 "HgN/A
4:50 pm39 °FScattered showers. Passing clouds.12 mph81%29.68 "HgN/A
4:20 pm41 °FScattered showers. Scattered clouds.20 mph76%29.68 "HgN/A
3:50 pm41 °FScattered showers. Scattered clouds.18 mph76%29.68 "HgN/A
3:20 pm39 °FScattered showers. Scattered clouds.20 mph81%29.68 "HgN/A
2:50 pm43 °FScattered showers. Passing clouds.21 mph71%29.68 "HgN/A
2:20 pm43 °FPassing clouds.21 mph71%29.68 "HgN/A
1:50 pm41 °FPassing clouds.20 mph76%29.68 "HgN/A
1:20 pm41 °FPassing clouds.17 mph81%29.68 "HgN/A
12:50 pm41 °FPassing clouds.18 mph81%29.68 "HgN/A
12:20 pm41 °FPassing clouds.20 mph76%29.68 "HgN/A
11:50 am43 °FScattered clouds.17 mph76%29.68 "HgN/A
10:20 am41 °FScattered clouds.6 mph76%29.68 "HgN/A
8:20 am37 °FPassing clouds.9 mph87%29.68 "HgN/A
6:50 am37 °FPassing clouds.13 mph87%29.68 "HgN/A
5:50 am37 °FPassing clouds.13 mph87%29.68 "HgN/A
Weather by CustomWeather, © 2018

See weather overview